Location: Cahas Mountain Overlook
(37.0833°N, 80.1000°W)
Time: 10:54:32
(UTC-04:00)

Courier 1B - Visible Passes

Search period start: 04 October 2024 00:00
Search period end: 14 October 2024 00:00
Orbit: 962 x 1208 km, 28.3° (Epoch: 04 October)

Date Brightness Start Highest point End Pass type
(mag) Time Alt. Az. Time Alt. Az. Time Alt. Az.
05 Oct 9.5 06:03:05 10° SSW 06:07:56 20° SSE 06:12:36 10° ESE visible
06 Oct 9.6 05:11:06 12° S 05:14:15 16° SSE 05:18:14 10° ESE visible
07 Oct 9.9 04:20:52 12° SSE 04:20:52 12° SSE 04:23:19 10° SE visible
07 Oct 9.0 06:08:00 10° SW 06:13:53 28° SSE 06:19:30 10° ESE visible
08 Oct 9.2 05:17:29 20° SSW 05:20:10 24° SSE 05:25:33 10° ESE visible
09 Oct 9.4 04:27:09 20° SSE 04:27:09 20° SSE 04:31:26 10° ESE visible
09 Oct 8.7 06:14:03 12° SW 06:19:54 36° S 06:26:00 10° ESE visible
10 Oct 10.2 03:36:46 11° ESE 03:36:46 11° ESE 03:37:00 10° ESE visible
10 Oct 8.8 05:23:41 26° SSW 05:26:09 33° SSE 05:32:12 10° ESE visible
11 Oct 9.0 04:33:16 28° SSE 04:33:16 28° SSE 04:38:20 10° ESE visible
11 Oct 8.5 06:20:09 14° WSW 06:25:57 41° S 06:32:16 10° ESE visible
12 Oct 9.9 03:42:50 15° ESE 03:42:50 15° ESE 03:44:18 10° ESE visible
12 Oct 8.5 05:29:43 31° SSW 05:32:10 39° S 05:38:35 10° ESE visible
13 Oct 8.7 04:39:16 36° SSE 04:39:16 36° SSE 04:44:49 10° ESE visible
13 Oct 8.5 06:26:10 14° WSW 06:32:00 41° S 06:38:24 10° ESE visible
